Torna al catalogo

STARLINK-5550

AttivoComunicazioniSSO
NORAD 56361·PAYLOAD·🇺🇸 United States

Lanciato Apr 27, 2023 da Vandenberg Space Force Base

Loading…

Prossimi Passaggi (prossime 24 ore)

TLE

AggiornatoSource: CelesTrak SupGP

Epoca: Sep 14, 2026, 20:58 UTC

1 56361C 23058AW  26257.87409722  .00053697  00000+0  32664-2 0  2579
2 56361  97.2857 252.0323 0001412  74.6653 298.4980 15.10500944    17

Traccia STARLINK-5550 in tempo reale con AllMySat

Download on the App Store